2020-061K (46281 NORAD) Tracking and Keplerian Element Data

This shows tracking and keplerian element data for the satellite.

Feedback or suggestion? Click here.




ElementValue
Catalog46281
Name2020-061K
Epoch Orbit305
Epoch Day267.42462981
Epoch Year2020
RAAN340.1729
Inclination97.5174
Eccentricity0.0002375
Argument of Perigee277.1455
Mean Anonmoly82.9504
Mean Motion15.0982315
Decay Rate9.02E-06
L11 46281U 20061K 20267.42462981 .00000902 00000-0 59667-4 0 9991
L22 46281 97.5174 340.1729 0002375 277.1455 82.9504 15.09823150 3050

Live tracking and technical data element details for 2020-061K (NORAD 46281). 2020-061K can be tracked NOW for your location showing map with azimuth and elevation plus other details from your city location.

Track the satellite on the map from your city or location and see movement details for azimuth, elevation, latitude, longitude, range, height, and movement on the map or in text.







IsCatalogInMostPopularTable: catalog: 46281, numindb: 2
Update: records affected: 1



GetName: 46281 2020-061K

Hit Count: updated at: Sat, 26 Sep 2020 14:49:36 GMT